Weather History for Dunkirk, NY

Change the Weather History Date:

Sunday, February 24, 2013

  Actual Average Record
Temperature  
Mean Temperature 29 °F -  
Max Temperature 30 °F 36 °F 62 °F (1943)
Min Temperature 28 °F 23 °F -5 °F (1934)
Degree Days  
Heating Degree Days 36    
Moisture  
Dew Point 23 °F    
Average Humidity 79    
Maximum Humidity 88    
Minimum Humidity 69    
Precipitation  
Precipitation 0.00 in - - ()
Sea Level Pressure  
Sea Level Pressure 29.96 in    
Wind  
Wind Speed 10 mph (WSW)    
Max Wind Speed 17 mph    
Max Gust Speed 26 mph    
Visibility 6 miles    
Events Snow    
Averages and records for this station are not official NWS values.
T = Trace of Precipitation, MM = Missing Value Source: NWS Daily Summary

Daily Weather History Graph

Daily Weather History Graph

Search for Another Location

Airport:

Trip Planner

Search our weather history database for the weather conditions in past years. The results will help you decide how hot, cold, wet, or windy it might be!

Date:

Astronomy

Feb. 24, 2013 Rise Set
Actual Time 7:00 AM EST 6:00 PM EST
Civil Twilight 6:31 AM EST 6:29 PM EST
Nautical Twilight 5:59 AM EST 7:02 PM EST
Astronomical Twilight 5:26 AM EST 7:34 PM EST
Moon 5:10 PM EST (2/24) 5:56 AM EST (2/24)
Length of Visible Light 11h 57m
Length of Day
11h 00m
Waxing Gibbous, 99% of the Moon is Illuminated
Feb 24
Waxing Gibbous
Feb 25
Full
Mar 4
Last Quarter
Mar 11
New
Mar 19
First Quarter

Hourly Weather History & Observations

Time (EST) Temp. Windchill Dew Point Humidity Pressure Visibility Wind Dir Wind Speed Gust Speed Precip Events Conditions
12:23 AM 30.2 °F 24.3 °F 21.2 °F 69% 29.88 in 10.0 mi SW 5.8 mph - N/A   Overcast
12:53 AM 28.9 °F 23.9 °F 21.9 °F 75% 29.89 in 10.0 mi SW 4.6 mph - N/A   Overcast
1:53 AM 30.0 °F 23.2 °F 21.9 °F 72% 29.90 in 10.0 mi SW 6.9 mph - N/A   Overcast
2:53 AM 28.9 °F 23.9 °F 21.9 °F 75% 29.89 in 10.0 mi SW 4.6 mph - N/A   Overcast
3:53 AM 30.0 °F 21.7 °F 21.9 °F 72% 29.90 in 10.0 mi WSW 9.2 mph - N/A   Overcast
4:25 AM 30.2 °F 21.9 °F 21.2 °F 69% 29.87 in 10.0 mi WSW 9.2 mph - N/A   Overcast
4:53 AM 30.0 °F 21.7 °F 21.0 °F 69% 29.90 in 10.0 mi WSW 9.2 mph - N/A   Overcast
5:25 AM 28.4 °F 18.5 °F 21.2 °F 74% 29.88 in 10.0 mi West 11.5 mph 17.3 mph N/A   Overcast
5:53 AM 28.9 °F 19.2 °F 21.9 °F 75% 29.91 in 10.0 mi WSW 11.5 mph - N/A   Overcast
6:53 AM 28.9 °F 20.4 °F 21.9 °F 75% 29.91 in 9.0 mi WSW 9.2 mph - N/A   Overcast
7:31 AM 28.4 °F 19.7 °F 23.0 °F 80% 29.90 in 1.8 mi West 9.2 mph 17.3 mph 0.00 in Snow Light Snow
7:40 AM 28.4 °F 21.2 °F 23.0 °F 80% 29.90 in 1.0 mi West 6.9 mph - 0.00 in Snow Light Snow
7:43 AM 28.4 °F 22.2 °F 24.8 °F 86% 29.90 in 0.8 mi West 5.8 mph - 0.00 in Snow Light Snow
7:50 AM 28.4 °F 19.7 °F 24.8 °F 86% 29.90 in 0.8 mi West 9.2 mph - 0.00 in Snow Light Snow
7:53 AM 28.0 °F 18.6 °F 25.0 °F 88% 29.93 in 1.0 mi West 10.4 mph - 0.00 in Snow Light Snow
7:58 AM 28.4 °F 19.7 °F 24.8 °F 86% 29.90 in 2.0 mi West 9.2 mph - 0.00 in Snow Light Snow
8:08 AM 28.4 °F 18.0 °F 24.8 °F 86% 29.91 in 1.0 mi WSW 12.7 mph 18.4 mph 0.00 in Snow Light Snow
8:20 AM 28.4 °F 18.0 °F 23.0 °F 80% 29.91 in 2.0 mi WSW 12.7 mph 19.6 mph 0.00 in Snow Light Snow
8:24 AM 28.4 °F 19.1 °F 23.0 °F 80% 29.91 in 2.5 mi West 10.4 mph - 0.00 in Snow Light Snow
8:35 AM 28.4 °F 19.7 °F 23.0 °F 80% 29.91 in 2.0 mi West 9.2 mph 18.4 mph 0.00 in Snow Light Snow
8:44 AM 28.4 °F 18.5 °F 23.0 °F 80% 29.92 in 5.0 mi West 11.5 mph 19.6 mph 0.00 in Snow Light Snow
8:53 AM 28.0 °F 18.6 °F 23.0 °F 81% 29.94 in 4.0 mi West 10.4 mph - 0.00 in Snow Light Snow
9:08 AM 28.4 °F 19.7 °F 23.0 °F 80% 29.92 in 2.0 mi West 9.2 mph 16.1 mph 0.00 in Snow Light Snow
9:12 AM 28.4 °F 19.7 °F 24.8 °F 86% 29.92 in 1.0 mi West 9.2 mph 16.1 mph 0.00 in Snow Light Snow
9:21 AM 28.4 °F 18.0 °F 23.0 °F 80% 29.92 in 1.2 mi West 12.7 mph 23.0 mph 0.00 in Snow Light Snow
9:27 AM 28.4 °F 19.1 °F 24.8 °F 86% 29.92 in 1.2 mi West 10.4 mph 18.4 mph 0.00 in Snow Light Snow
9:32 AM 28.4 °F 18.5 °F 24.8 °F 86% 29.93 in 1.5 mi West 11.5 mph 18.4 mph 0.00 in Snow Light Snow
9:51 AM 28.4 °F 18.5 °F 24.8 °F 86% 29.93 in 2.5 mi West 11.5 mph 20.7 mph 0.00 in Snow Light Snow
9:52 AM 28.0 °F 18.1 °F 24.1 °F 85% 29.95 in 3.0 mi West 11.5 mph - 0.00 in Snow Light Snow
10:01 AM 28.4 °F 18.5 °F 24.8 °F 86% 29.93 in 3.0 mi West 11.5 mph 19.6 mph 0.00 in Snow Light Snow
10:10 AM 28.4 °F 16.6 °F 24.8 °F 86% 29.93 in 2.5 mi West 16.1 mph 23.0 mph 0.00 in Snow Light Snow
10:14 AM 28.4 °F 18.5 °F 24.8 °F 86% 29.93 in 1.5 mi West 11.5 mph 23.0 mph 0.00 in Snow Light Snow
10:21 AM 28.4 °F 18.0 °F 24.8 °F 86% 29.93 in 1.5 mi West 12.7 mph 19.6 mph 0.00 in Snow Light Snow
10:30 AM 28.4 °F 17.5 °F 23.0 °F 80% 29.93 in 2.5 mi WSW 13.8 mph - 0.00 in Snow Light Snow
10:53 AM 28.0 °F 15.7 °F 24.1 °F 85% 29.96 in 1.8 mi West 17.3 mph 24.2 mph 0.00 in Snow Light Snow
11:02 AM 28.4 °F 16.2 °F 24.8 °F 86% 29.94 in 2.0 mi WSW 17.3 mph 24.2 mph 0.00 in Snow Light Snow
11:07 AM 28.4 °F 17.5 °F 23.0 °F 80% 29.94 in 4.0 mi West 13.8 mph 23.0 mph 0.00 in Snow Light Snow
11:23 AM 28.4 °F 18.0 °F 23.0 °F 80% 29.95 in 3.0 mi West 12.7 mph 23.0 mph 0.00 in Snow Light Snow
11:53 AM 28.9 °F 20.4 °F 23.0 °F 78% 29.98 in 7.0 mi West 9.2 mph 24.2 mph 0.00 in Snow Light Snow
12:53 PM 28.9 °F 17.7 °F 21.9 °F 75% 29.99 in 10.0 mi West 15.0 mph 26.5 mph 0.00 in   Overcast
1:03 PM 28.4 °F 18.0 °F 21.2 °F 74% 29.96 in 10.0 mi West 12.7 mph - N/A   Overcast
1:53 PM 28.9 °F 18.6 °F 23.0 °F 78% 29.99 in 10.0 mi West 12.7 mph 24.2 mph N/A   Overcast
2:37 PM 28.4 °F 19.1 °F 21.2 °F 74% 29.97 in 10.0 mi WSW 10.4 mph 23.0 mph N/A   Overcast
2:53 PM 28.9 °F 18.6 °F 21.9 °F 75% 30.01 in 10.0 mi West 12.7 mph 25.3 mph N/A   Overcast
3:03 PM 28.4 °F 16.2 °F 21.2 °F 74% 29.98 in 10.0 mi WSW 17.3 mph 25.3 mph N/A   Overcast
3:45 PM 28.4 °F 18.0 °F 21.2 °F 74% 30.00 in 10.0 mi West 12.7 mph 23.0 mph N/A   Overcast
3:53 PM 28.9 °F 18.6 °F 23.0 °F 78% 30.03 in 10.0 mi WSW 12.7 mph 18.4 mph N/A   Overcast
4:53 PM 30.0 °F 19.1 °F 24.1 °F 79% 30.05 in 10.0 mi WSW 15.0 mph 23.0 mph N/A   Overcast
5:23 PM 30.2 °F 19.8 °F 24.8 °F 80% 30.03 in 9.0 mi WSW 13.8 mph 19.6 mph N/A   Overcast
5:53 PM 30.0 °F 19.1 °F 24.1 °F 79% 30.07 in 10.0 mi West 15.0 mph - N/A   Overcast
6:53 PM 30.0 °F 21.1 °F 24.1 °F 79% 30.09 in 10.0 mi WSW 10.4 mph 18.4 mph N/A   Overcast
8:46 PM 30.2 °F 21.9 °F 24.8 °F 80% 30.10 in 9.0 mi West 9.2 mph - N/A   Overcast
8:53 PM 30.0 °F 23.2 °F 25.0 °F 82% 30.13 in 9.0 mi West 6.9 mph - N/A   Overcast
9:02 PM 30.2 °F 21.9 °F 24.8 °F 80% 30.10 in 9.0 mi West 9.2 mph - N/A   Overcast
9:53 PM 30.0 °F 24.1 °F 21.0 °F 69% 30.13 in 10.0 mi West 5.8 mph - N/A   Mostly Cloudy
10:53 PM 30.0 °F 24.1 °F 21.9 °F 72% 30.13 in 10.0 mi West 5.8 mph - N/A   Overcast
11:53 PM 30.0 °F 22.4 °F 21.9 °F 72% 30.14 in 10.0 mi West 8.1 mph - N/A   Overcast